TimeCST,TemperatureF,Dew PointF,Humidity,Sea Level PressureIn,VisibilityMPH,Wind Direction,Wind SpeedMPH,Gust SpeedMPH,PrecipitationIn,Events,Conditions,WindDirDegrees,DateUTC
12:58 AM,47.7,37.2,67,29.83,10.0,SSW,15.0,-,N/A,,Clear,210,2013-12-19 06:58:00
1:58 AM,47.7,37.8,69,29.82,10.0,SSW,15.0,-,N/A,,Partly Cloudy,210,2013-12-19 07:58:00
2:58 AM,47.3,38.3,71,29.82,10.0,SSW,12.7,-,N/A,,Clear,210,2013-12-19 08:58:00
3:58 AM,45.7,37.9,74,29.81,10.0,SSW,10.4,-,N/A,,Partly Cloudy,200,2013-12-19 09:58:00
4:58 AM,45.3,38.5,77,29.80,10.0,SSW,12.7,-,N/A,,Partly Cloudy,200,2013-12-19 10:58:00
5:58 AM,45.3,38.7,78,29.79,10.0,SSW,10.4,-,N/A,,Clear,200,2013-12-19 11:58:00
6:58 AM,48.2,40.6,75,29.79,10.0,SSW,11.5,-,N/A,,Partly Cloudy,200,2013-12-19 12:58:00
7:58 AM,49.3,41.9,76,29.81,10.0,South,10.4,-,N/A,,Overcast,190,2013-12-19 13:58:00
8:58 AM,51.1,43.2,74,29.81,10.0,South,12.7,-,N/A,,Mostly Cloudy,190,2013-12-19 14:58:00
9:58 AM,54.1,45.0,71,29.83,10.0,SSW,15.0,-,N/A,,Overcast,200,2013-12-19 15:58:00
10:58 AM,56.8,46.9,69,29.82,10.0,SSW,20.7,28.8,N/A,,Overcast,200,2013-12-19 16:58:00
11:58 AM,58.1,48.6,71,29.79,10.0,SSW,23.0,27.6,N/A,,Overcast,200,2013-12-19 17:58:00
12:58 PM,57.4,48.7,73,29.75,10.0,SSW,17.3,26.5,N/A,,Overcast,200,2013-12-19 18:58:00
1:58 PM,56.7,48.6,74,29.72,10.0,South,9.2,-,N/A,,Overcast,170,2013-12-19 19:58:00
2:58 PM,55.9,48.4,76,29.71,10.0,South,10.4,-,N/A,,Overcast,170,2013-12-19 20:58:00
3:58 PM,55.6,48.6,77,29.70,10.0,South,8.1,-,N/A,,Overcast,170,2013-12-19 21:58:00
4:43 PM,55.4,48.2,77,29.70,10.0,South,8.1,-,N/A,,Mostly Cloudy,180,2013-12-19 22:43:00
4:58 PM,54.9,48.7,80,29.71,10.0,South,8.1,-,N/A,,Mostly Cloudy,170,2013-12-19 22:58:00
5:18 PM,55.4,48.2,77,29.69,10.0,South,8.1,-,N/A,,Mostly Cloudy,170,2013-12-19 23:18:00
5:58 PM,54.3,48.6,81,29.72,10.0,South,6.9,-,N/A,,Overcast,170,2013-12-19 23:58:00
6:58 PM,54.1,48.2,80,29.71,10.0,South,8.1,-,N/A,,Mostly Cloudy,170,2013-12-20 00:58:00
7:58 PM,54.0,48.2,81,29.71,10.0,South,9.2,-,N/A,,Overcast,180,2013-12-20 01:58:00
8:58 PM,54.3,48.4,80,29.71,10.0,South,9.2,-,N/A,,Overcast,180,2013-12-20 02:58:00
9:58 PM,53.8,48.6,82,29.71,10.0,South,8.1,-,N/A,,Overcast,180,2013-12-20 03:58:00
10:58 PM,54.0,48.7,82,29.70,10.0,South,9.2,-,N/A,,Overcast,180,2013-12-20 04:58:00
11:58 PM,54.1,48.7,82,29.69,10.0,South,8.1,-,N/A,,Overcast,180,2013-12-20 05:58:00